STARLINK-1080 (44961 NORAD) Tracking and Keplerian Element Data

This shows tracking and keplerian element data for the satellite.

Feedback or suggestion? Click here.




ElementValue
Catalog44961
NameSTARLINK-1080
Epoch Orbit728
Epoch Day53.25001157
Epoch Year2020
RAAN167.2166
Inclination52.9959
Eccentricity0.0001631
Argument of Perigee26.8261
Mean Anonmoly93.2158
Mean Motion15.73155699
Decay Rate0.00267817
L11 44961U 20001AZ 20053.25001157 .00267817 00000-0 18555-2 0 9995
L22 44961 52.9959 167.2166 0001631 26.8261 93.2158 15.73155699 7286

Live tracking and technical data element details for STARLINK-1080 (NORAD 44961). STARLINK-1080 can be tracked NOW for your location showing map with azimuth and elevation plus other details from your city location.

Track the satellite on the map from your city or location and see movement details for azimuth, elevation, latitude, longitude, range, height, and movement on the map or in text.







IsCatalogInMostPopularTable: catalog: 44961, numindb: 17
Update: records affected: 1



GetName: 44961 STARLINK-1080

Hit Count: updated at: Wed, 26 Feb 2020 16:59:05 GMT